SCP
0 0 0 0 0 0 0 0 0 0 0 0 0 0 0 0 0 0 -0 -0 -0 -0 -0 -0 0 0 0 -0 0 0 0 0
0 0 0 0 0 0 0 0 0 0 0 0 0 -0 0 0 0 0 0 0 0 -0 -0 0 0 0 0 0 0 0 0 0
-0 0 0 0 0 0 0 0 0 0 0 0 0 -0 0 0 0 0 -0 0 0 0 -0 0 0 0 0 0 0 0 0 0
0 0 0 0 0 0 0 0 0 0 -0 0 0 0 0 0 0 0 -0 0 0 0 -0 0 0 0 0 0 0 0 0 0
0 -0 0 0 0 0 0 0 0 0 -0 0 0 0 0 0 0 0 0 0 0 0 0 -0 0 0 0 0 0 0 0 0
0 0 0 0 0 0 0 0 0 -0 -0 0 0 0 0 0 0 0 0 0 0 0 0 0 0 0 0 0 0 0 0 0
0 0 0 0 0 0 0 0 0 0 -0 0 0 0 -0 -0 -0 0 -0 0 0 0 0 0 0 0 0 0 0 0 0 0
0 0 0 0 0 0 0 0 0 0 0 0 0 -0 -0 -0 0 0 0 0 0 0 0 0 0 0 0 0 0 0 0 0
0 0 0 0 0 0 0 0 0 0 -0 0 0 0 0 0 0 0 0 0 0 0 0 0 0 0 0 0 0 0 0 0
0 0 0 0 0 0 0 0 0 0 0 0 0 0 0 0 0 0 0 0 -0 0 0 -0 0 0 0 0 0 0 0 0
0 0 0 0 0 0 0 0 0 0 0 0 0 0 0 0 0 0 0 0 0 0 0 0 0 0 0 0 0 0 1 0
0 0 0 0 0 0 0 0 0 0 0 0 0 0 0 0 0 0 0 1 2 0 0 0 0 0 0 0 0 0 1 1
0 0 0 0 0 0 0 0 0 0 0 0 0 0 0 0 0 0 0 0 2 2 4 3 0 0 -0 0 0 0 1 1
0 0 0 0 0 0 0 0 0 0 0 0 0 0 0 0 0 0 0 0 0 0 1 3 3 1 1 1 0 1 0 1
0 0 0 0 0 0 0 0 0 0 0 0 0 0 0 0 0 0 0 0 0 0 0 0 2 5 5 6 4 2 2 1
0 0 0 0 0 0 0 0 0 0 0 0 0 0 0 0 0 0 0 0 0 0 0 0 0 1 5 5 3 3 3 4
0 0 0 0 0 0 0 0 0 0 0 0 0 0 0 0 0 0 0 0 0 0 0 0 0 0 0 3 3 3 2 3
0 0 0 0 0 0 0 0 0 0 0 0 0 0 0 0 0 0 0 0 0 0 0 0 0 0 0 0 1 2 2 2
0 0 0 0 0 0 0 0 0 0 0 0 0 0 0 0 0 0 0 0 0 0 0 0 0 0 0 0 0 1 1 1
Wind_Speed_500mb
39 31 34 21 34 23 9 6 5 12 10 11 14 28 30 57 50 72 83 82 94 89 93 104 106 114 121 119 110 107 105 107
26 20 34 39 18 15 11 16 15 9 11 15 21 30 26 31 55 68 84 84 80 90 94 97 109 113 116 118 109 107 107 110
21 13 47 23 22 10 12 9 22 3 15 15 23 31 27 32 62 77 80 96 99 94 96 97 103 109 116 117 114 112 108 109
21 34 36 22 22 15 22 24 5 7 29 9 20 25 26 41 60 73 90 98 97 99 102 99 102 105 114 114 114 112 107 108
14 4 4 9 25 32 18 8 21 30 22 6 10 10 33 38 60 65 83 93 91 82 93 106 103 106 110 111 112 111 108 108
14 14 18 21 35 19 22 27 11 37 10 20 25 18 16 37 54 67 89 97 88 86 98 105 110 110 109 109 108 105 105 105
32 49 40 38 43 43 22 20 35 27 19 27 22 19 17 42 66 60 88 89 87 92 96 100 98 100 105 105 105 102 100 103
32 46 40 38 36 33 37 27 15 11 27 16 4 7 25 39 47 50 74 84 94 96 101 104 107 109 108 105 100 99 97 99
14 10 8 12 14 24 7 28 8 16 8 22 9 23 29 42 19 52 71 88 92 98 105 111 114 111 109 101 96 102 101 96
11 14 15 20 19 16 43 40 37 24 19 5 25 33 61 60 34 7 51 78 95 96 104 107 109 109 102 100 101 100 98 93
7 8 10 1 14 18 9 38 42 38 30 3 43 58 50 63 52 40 28 51 65 73 74 72 81 83 91 94 95 94 91 89
7 2 9 6 35 49 22 21 42 45 37 29 20 17 10 49 56 63 50 42 50 64 60 62 67 72 86 89 84 84 83 83
16 9 6 16 44 33 14 2 40 49 50 45 25 17 26 49 61 66 75 70 60 59 61 55 65 60 63 69 72 75 73 71
7 4 4 38 22 14 6 8 24 46 58 54 33 45 53 57 62 65 70 74 76 73 63 50 41 53 55 55 57 59 59 58
7 5 9 25 14 22 27 24 37 54 61 64 31 43 48 52 55 59 58 59 61 65 65 62 60 57 54 38 35 38 38 43
14 13 23 43 11 10 36 35 40 50 42 47 43 35 39 41 44 48 49 48 45 48 53 52 45 43 43 35 28 25 26 22
9 15 52 4 44 50 42 41 46 46 38 31 38 36 29 32 34 36 40 39 36 37 40 41 35 31 26 20 14 10 12 16
4 22 21 42 54 42 42 41 40 46 46 26 21 33 22 21 26 29 30 29 30 30 29 30 26 24 19 12 7 2 8 20
19 42 37 37 51 41 26 40 38 43 43 41 17 13 20 17 15 18 25 28 30 30 28 23 19 17 11 9 8 6 8 13
Wind_Direction_500mb
300 254 198 197 208 195 103 350 176 222 249 297 205 237 222 228 204 204 216 215 219 214 209 210 211 213 218 219 220 224 226 227
305 300 241 209 159 189 218 191 225 269 213 205 190 229 213 220 208 206 207 215 215 221 215 212 214 217 220 222 222 224 226 227
334 227 220 211 203 200 159 193 224 235 248 205 195 207 200 219 211 210 206 212 214 214 216 212 215 215 218 221 222 223 225 227
250 277 300 298 216 170 203 215 245 198 244 250 212 197 195 213 215 213 211 212 213 212 212 205 213 215 217 222 223 223 227 227
290 260 320 254 203 210 211 116 209 223 236 233 254 256 208 201 220 220 217 214 211 202 200 205 205 215 220 222 226 226 226 229
269 300 320 300 318 327 206 219 193 232 213 260 271 260 249 252 231 233 217 215 202 194 197 203 205 213 220 225 228 229 228 231
256 265 272 272 275 285 287 220 208 235 223 230 229 240 278 301 290 250 206 200 192 190 194 200 202 208 221 227 229 227 230 232
273 253 238 247 258 256 250 246 210 200 239 222 307 340 342 313 267 210 194 189 189 191 193 197 206 213 220 224 227 229 230 230
266 307 274 221 334 293 140 42 336 209 289 311 59 54 17 350 280 212 192 189 187 190 196 203 211 217 219 223 224 229 229 228
269 297 171 151 30 342 81 48 18 352 294 141 97 79 41 21 24 205 212 194 193 194 200 204 211 216 217 222 225 227 229 230
264 315 102 99 355 340 2 43 19 4 23 12 119 65 27 20 39 69 148 188 192 194 198 196 204 209 214 217 220 224 229 232
309 203 166 267 310 306 229 47 354 356 17 8 44 72 342 17 45 76 103 135 173 191 193 194 204 212 213 215 218 225 231 234
233 251 182 324 320 315 66 324 339 1 3 14 50 71 49 54 59 71 86 102 125 148 162 181 198 204 212 219 227 232 234 233
249 93 98 346 351 75 174 351 360 4 8 0 44 57 55 53 53 61 75 88 97 106 114 118 155 189 198 208 220 228 237 241
44 277 289 358 25 91 55 18 1 359 8 15 27 49 49 48 47 49 60 74 84 94 100 106 114 126 137 150 189 201 206 220
332 9 320 314 343 52 352 346 343 347 356 13 19 31 41 41 41 42 47 59 75 85 87 89 96 113 119 129 142 152 150 159
280 321 326 10 337 339 344 338 342 339 346 355 1 3 16 23 27 31 37 47 60 71 76 80 86 93 101 115 134 172 200 210
273 314 300 286 324 335 328 328 338 334 327 333 348 2 2 19 23 15 20 28 43 51 63 69 79 81 77 71 68 30 276 264
345 321 303 298 301 305 311 292 306 310 308 306 307 328 342 5 7 356 344 358 11 9 7 21 42 65 61 47 25 356 334 318
Wind_Speed_850mb
39 31 34 21 34 23 9 6 5 12 10 11 14 28 30 57 50 72 83 82 94 89 93 104 106 114 121 119 110 107 105 107
26 20 34 39 18 15 11 16 15 9 11 15 21 30 26 31 55 68 84 84 80 90 94 97 109 113 116 118 109 107 107 110
21 13 47 23 22 10 12 9 22 3 15 15 23 31 27 32 62 77 80 96 99 94 96 97 103 109 116 117 114 112 108 109
21 34 36 22 22 15 22 24 5 7 29 9 20 25 26 41 60 73 90 98 97 99 102 99 102 105 114 114 114 112 107 108
14 4 4 9 25 32 18 8 21 30 22 6 10 10 33 38 60 65 83 93 91 82 93 106 103 106 110 111 112 111 108 108
14 14 18 21 35 19 22 27 11 37 10 20 25 18 16 37 54 67 89 97 88 86 98 105 110 110 109 109 108 105 105 105
32 49 40 38 43 43 22 20 35 27 19 27 22 19 17 42 66 60 88 89 87 92 96 100 98 100 105 105 105 102 100 103
32 46 40 38 36 33 37 27 15 11 27 16 4 7 25 39 47 50 74 84 94 96 101 104 107 109 108 105 100 99 97 99
14 10 8 12 14 24 7 28 8 16 8 22 9 23 29 42 19 52 71 88 92 98 105 111 114 111 109 101 96 102 101 96
11 14 15 20 19 16 43 40 37 24 19 5 25 33 61 60 34 7 51 78 95 96 104 107 109 109 102 100 101 100 98 93
7 8 10 1 14 18 9 38 42 38 30 3 43 58 50 63 52 40 28 51 65 73 74 72 81 83 91 94 95 94 91 89
7 2 9 6 35 49 22 21 42 45 37 29 20 17 10 49 56 63 50 42 50 64 60 62 67 72 86 89 84 84 83 83
16 9 6 16 44 33 14 2 40 49 50 45 25 17 26 49 61 66 75 70 60 59 61 55 65 60 63 69 72 75 73 71
7 4 4 38 22 14 6 8 24 46 58 54 33 45 53 57 62 65 70 74 76 73 63 50 41 53 55 55 57 59 59 58
7 5 9 25 14 22 27 24 37 54 61 64 31 43 48 52 55 59 58 59 61 65 65 62 60 57 54 38 35 38 38 43
14 13 23 43 11 10 36 35 40 50 42 47 43 35 39 41 44 48 49 48 45 48 53 52 45 43 43 35 28 25 26 22
9 15 52 4 44 50 42 41 46 46 38 31 38 36 29 32 34 36 40 39 36 37 40 41 35 31 26 20 14 10 12 16
4 22 21 42 54 42 42 41 40 46 46 26 21 33 22 21 26 29 30 29 30 30 29 30 26 24 19 12 7 2 8 20
19 42 37 37 51 41 26 40 38 43 43 41 17 13 20 17 15 18 25 28 30 30 28 23 19 17 11 9 8 6 8 13
Wind_Direction_850mb
300 254 198 197 208 195 103 350 176 222 249 297 205 237 222 228 204 204 216 215 219 214 209 210 211 213 218 219 220 224 226 227
305 300 241 209 159 189 218 191 225 269 213 205 190 229 213 220 208 206 207 215 215 221 215 212 214 217 220 222 222 224 226 227
334 227 220 211 203 200 159 193 224 235 248 205 195 207 200 219 211 210 206 212 214 214 216 212 215 215 218 221 222 223 225 227
250 277 300 298 216 170 203 215 245 198 244 250 212 197 195 213 215 213 211 212 213 212 212 205 213 215 217 222 223 223 227 227
290 260 320 254 203 210 211 116 209 223 236 233 254 256 208 201 220 220 217 214 211 202 200 205 205 215 220 222 226 226 226 229
269 300 320 300 318 327 206 219 193 232 213 260 271 260 249 252 231 233 217 215 202 194 197 203 205 213 220 225 228 229 228 231
256 265 272 272 275 285 287 220 208 235 223 230 229 240 278 301 290 250 206 200 192 190 194 200 202 208 221 227 229 227 230 232
273 253 238 247 258 256 250 246 210 200 239 222 307 340 342 313 267 210 194 189 189 191 193 197 206 213 220 224 227 229 230 230
266 307 274 221 334 293 140 42 336 209 289 311 59 54 17 350 280 212 192 189 187 190 196 203 211 217 219 223 224 229 229 228
269 297 171 151 30 342 81 48 18 352 294 141 97 79 41 21 24 205 212 194 193 194 200 204 211 216 217 222 225 227 229 230
264 315 102 99 355 340 2 43 19 4 23 12 119 65 27 20 39 69 148 188 192 194 198 196 204 209 214 217 220 224 229 232
309 203 166 267 310 306 229 47 354 356 17 8 44 72 342 17 45 76 103 135 173 191 193 194 204 212 213 215 218 225 231 234
233 251 182 324 320 315 66 324 339 1 3 14 50 71 49 54 59 71 86 102 125 148 162 181 198 204 212 219 227 232 234 233
249 93 98 346 351 75 174 351 360 4 8 0 44 57 55 53 53 61 75 88 97 106 114 118 155 189 198 208 220 228 237 241
44 277 289 358 25 91 55 18 1 359 8 15 27 49 49 48 47 49 60 74 84 94 100 106 114 126 137 150 189 201 206 220
332 9 320 314 343 52 352 346 343 347 356 13 19 31 41 41 41 42 47 59 75 85 87 89 96 113 119 129 142 152 150 159
280 321 326 10 337 339 344 338 342 339 346 355 1 3 16 23 27 31 37 47 60 71 76 80 86 93 101 115 134 172 200 210
273 314 300 286 324 335 328 328 338 334 327 333 348 2 2 19 23 15 20 28 43 51 63 69 79 81 77 71 68 30 276 264
345 321 303 298 301 305 311 292 306 310 308 306 307 328 342 5 7 356 344 358 11 9 7 21 42 65 61 47 25 356 334 318